Zurück zum Katalog

DELTA 1 DEB

AktivSSO
NORAD 12175·DEBRIS·🇺🇸 United States

Gestartet Mar 5, 1978 von Vandenberg Space Force Base

Loading…

Nächste Überflüge (nächste 24 Stunden)

TLE

AktuellSource: Space-Track

Epoche: Sep 14, 2026, 04:34 UTC

1 12175U 78026Q   26257.19044262  .00000116  00000-0  11235-3 0  9992
2 12175  99.2017 152.0625 0062464 164.8733 356.6321 13.97444263319698

Verfolge DELTA 1 DEB in Echtzeit mit AllMySat

Download on the App Store